Location: B?dargowo
(53.3916°N, 14.4413°E)
Time: 05:25:12
(UTC+00:00)

Cosmos 1697 Rocket - Pass Details

Date: 05 February 2023
Orbit: 834 x 842 km, 71.0° (Epoch: 24 March)

Event Time Altitude Azimuth Distance (km) Brightness Sun altitude
Rises 16:32:31 0° 240° (WSW) 3,392 7.9 -6.3°
Reaches altitude 10° 16:35:09 10° 249° (WSW) 2,460 7.0 -6.7°
Maximum altitude 16:40:22 37° 316° (NW) 1,286 4.0 -7.5°
Drops below altitude 10° 16:45:36 10° 24° (NNE) 2,466 4.8 -8.2°
Enters shadow 16:48:03 - 32° (NNE) 3,330 5.4 -8.6°
